EZY557L EGKK-EGCC

Flight info

Callsign EZY557L
Flight time 0h 42m
Altitude 24000
Route LAM N57 WELIN DCT TIMPO DCT ELVOS DCT TNT
Aircraft A320/M-SDE3FGHIRWY/LB1

Departure

Time 2026-05-04 19:37
Airport London Gatwick Airport (EGKK)

Arrival

Time 2026-05-04 20:20
Airport Manchester Airport (EGCC)
Time Latitude Longitude Altitude Speed Heading
2026-05-04 18:32 51.15451 -0.17605 213 ft 0 kts 167°
2026-05-04 19:13 51.15460 -0.17608 205 ft 4 kts 166°
2026-05-04 19:13 51.15485 -0.17621 214 ft 4 kts 156°
2026-05-04 19:13 51.15508 -0.17642 212 ft 4 kts 133°
2026-05-04 19:13 51.15518 -0.17672 214 ft 2 kts 79°
2026-05-04 19:14 51.15518 -0.17675 214 ft 0 kts 78°
2026-05-04 19:20 51.15519 -0.17665 218 ft 5 kts 78°
2026-05-04 19:21 51.15537 -0.17537 210 ft 17 kts 77°
2026-05-04 19:21 51.15516 -0.17428 205 ft 8 kts 156°
2026-05-04 19:21 51.15467 -0.17409 205 ft 7 kts 167°
2026-05-04 19:21 51.15445 -0.17401 213 ft 2 kts 168°
2026-05-04 19:22 51.15435 -0.17398 209 ft 2 kts 168°
2026-05-04 19:22 51.15360 -0.17372 210 ft 14 kts 167°
2026-05-04 19:22 51.15302 -0.17426 212 ft 10 kts 255°
2026-05-04 19:22 51.15294 -0.17500 205 ft 0 kts 259°
2026-05-04 19:23 51.15291 -0.17529 212 ft 9 kts 258°
2026-05-04 19:24 51.15278 -0.17622 206 ft 8 kts 257°
2026-05-04 19:24 51.15262 -0.17736 210 ft 11 kts 257°
2026-05-04 19:24 51.15247 -0.17846 207 ft 10 kts 258°
2026-05-04 19:24 51.15233 -0.17947 211 ft 9 kts 257°
2026-05-04 19:25 51.15220 -0.18039 206 ft 8 kts 257°
2026-05-04 19:25 51.15209 -0.18120 206 ft 7 kts 257°
2026-05-04 19:25 51.15199 -0.18192 212 ft 6 kts 257°
2026-05-04 19:25 51.15190 -0.18258 206 ft 7 kts 258°
2026-05-04 19:26 51.15175 -0.18391 208 ft 14 kts 258°
2026-05-04 19:26 51.15156 -0.18534 210 ft 13 kts 258°
2026-05-04 19:26 51.15140 -0.18664 210 ft 11 kts 258°
2026-05-04 19:26 51.15123 -0.18783 209 ft 10 kts 256°
2026-05-04 19:27 51.15107 -0.18889 206 ft 9 kts 256°
2026-05-04 19:27 51.15094 -0.18980 207 ft 8 kts 261°
2026-05-04 19:27 51.15083 -0.19086 211 ft 11 kts 258°
2026-05-04 19:27 51.15065 -0.19211 206 ft 12 kts 257°
2026-05-04 19:28 51.15046 -0.19349 205 ft 13 kts 258°
2026-05-04 19:28 51.15024 -0.19500 211 ft 15 kts 256°
2026-05-04 19:28 51.15002 -0.19665 210 ft 16 kts 258°
2026-05-04 19:28 51.14978 -0.19838 207 ft 17 kts 257°
2026-05-04 19:29 51.14951 -0.20024 207 ft 16 kts 262°
2026-05-04 19:29 51.14933 -0.20167 205 ft 11 kts 258°
2026-05-04 19:29 51.14918 -0.20279 203 ft 10 kts 257°
2026-05-04 19:29 51.14904 -0.20380 202 ft 9 kts 257°
2026-05-04 19:30 51.14891 -0.20474 202 ft 8 kts 258°
2026-05-04 19:30 51.14880 -0.20556 211 ft 7 kts 258°
2026-05-04 19:30 51.14870 -0.20629 205 ft 6 kts 257°
2026-05-04 19:30 51.14861 -0.20693 187 ft 8 kts 257°
2026-05-04 19:31 51.14846 -0.20799 202 ft 10 kts 258°
2026-05-04 19:31 51.14833 -0.20894 202 ft 8 kts 258°
2026-05-04 19:31 51.14822 -0.20974 206 ft 7 kts 258°
2026-05-04 19:31 51.14813 -0.21041 209 ft 6 kts 258°
2026-05-04 19:32 51.14805 -0.21099 205 ft 5 kts 257°
2026-05-04 19:32 51.14789 -0.21167 208 ft 11 kts 246°
2026-05-04 19:32 51.14771 -0.21279 202 ft 10 kts 257°
2026-05-04 19:32 51.14755 -0.21379 211 ft 9 kts 249°
2026-05-04 19:33 51.14710 -0.21399 201 ft 6 kts 175°
2026-05-04 19:33 51.14672 -0.21373 203 ft 5 kts 136°
2026-05-04 19:33 51.14646 -0.21342 207 ft 4 kts 149°
2026-05-04 19:33 51.14618 -0.21327 204 ft 4 kts 164°
2026-05-04 19:34 51.14612 -0.21324 203 ft 0 kts 164°
2026-05-04 19:35 51.14598 -0.21318 212 ft 6 kts 164°
2026-05-04 19:35 51.14556 -0.21287 208 ft 9 kts 144°
2026-05-04 19:35 51.14518 -0.21188 209 ft 12 kts 102°
2026-05-04 19:36 51.14528 -0.21063 214 ft 11 kts 79°
2026-05-04 19:36 51.14549 -0.20917 206 ft 20 kts 77°
2026-05-04 19:36 51.14620 -0.20401 208 ft 82 kts 77°
2026-05-04 19:36 51.14785 -0.19201 210 ft 140 kts 77°
2026-05-04 19:37 51.15020 -0.17491 422 ft 166 kts 77°
2026-05-04 19:37 51.15258 -0.15685 1130 ft 168 kts 77°
2026-05-04 19:37 51.15493 -0.13832 1754 ft 177 kts 77°
2026-05-04 19:37 51.15763 -0.11813 2134 ft 197 kts 76°
2026-05-04 19:38 51.16033 -0.09911 2492 ft 214 kts 76°
2026-05-04 19:38 51.16403 -0.07508 3050 ft 227 kts 69°
2026-05-04 19:38 51.17234 -0.05280 3608 ft 245 kts 52°
2026-05-04 19:38 51.18305 -0.03076 4345 ft 256 kts 52°
2026-05-04 19:39 51.19421 -0.00805 4893 ft 262 kts 51°
2026-05-04 19:39 51.20545 0.01492 4994 ft 262 kts 52°
2026-05-04 19:39 51.21669 0.03803 5019 ft 263 kts 51°
2026-05-04 19:39 51.22784 0.06108 5022 ft 262 kts 52°
2026-05-04 19:40 51.23897 0.08412 5020 ft 262 kts 52°
2026-05-04 19:40 51.24846 0.10913 5110 ft 269 kts 67°
2026-05-04 19:40 51.25334 0.13809 6021 ft 271 kts 79°
2026-05-04 19:40 51.25676 0.16745 6902 ft 274 kts 79°
2026-05-04 19:41 51.26039 0.19759 7749 ft 278 kts 79°
2026-05-04 19:41 51.26316 0.22032 8383 ft 281 kts 79°
2026-05-04 19:41 51.26691 0.25112 9223 ft 285 kts 79°
2026-05-04 19:41 51.27066 0.28236 10044 ft 289 kts 80°
2026-05-04 19:42 51.27681 0.31311 10791 ft 294 kts 61°
2026-05-04 19:42 51.28989 0.33819 11586 ft 297 kts 38°
2026-05-04 19:42 51.30819 0.35323 12380 ft 300 kts 15°
2026-05-04 19:42 51.32901 0.35561 13193 ft 304 kts 353°
2026-05-04 19:43 51.34928 0.34558 13949 ft 308 kts 338°
2026-05-04 19:43 51.36919 0.33266 14607 ft 312 kts 338°
2026-05-04 19:43 51.38905 0.31963 15255 ft 315 kts 338°
2026-05-04 19:43 51.40974 0.30602 15904 ft 319 kts 338°
2026-05-04 19:44 51.43015 0.29262 16531 ft 323 kts 338°
2026-05-04 19:44 51.45112 0.27891 17166 ft 327 kts 338°
2026-05-04 19:44 51.47228 0.26512 17810 ft 331 kts 338°
2026-05-04 19:44 51.49370 0.25118 18451 ft 334 kts 337°
2026-05-04 19:45 51.51539 0.23706 18985 ft 338 kts 337°
2026-05-04 19:45 51.53735 0.22282 19511 ft 343 kts 337°
2026-05-04 19:45 51.55955 0.20838 20074 ft 345 kts 337°
2026-05-04 19:45 51.58159 0.19396 20624 ft 348 kts 337°
2026-05-04 19:46 51.60411 0.17921 21199 ft 351 kts 336°
2026-05-04 19:46 51.62646 0.16442 21733 ft 354 kts 334°
2026-05-04 19:46 51.64351 0.14948 22135 ft 356 kts 324°
2026-05-04 19:46 51.66301 0.12431 22398 ft 366 kts 313°
2026-05-04 19:47 51.68115 0.09446 22527 ft 380 kts 313°
2026-05-04 19:47 51.69995 0.06338 22680 ft 395 kts 313°
2026-05-04 19:47 51.71951 0.03106 22826 ft 408 kts 313°
2026-05-04 19:47 51.73939 -0.00168 23054 ft 419 kts 313°
2026-05-04 19:48 51.76000 -0.03555 23437 ft 424 kts 313°
2026-05-04 19:48 51.78072 -0.06963 23835 ft 428 kts 313°
2026-05-04 19:48 51.80162 -0.10408 24004 ft 429 kts 313°
2026-05-04 19:48 51.82257 -0.13872 24055 ft 431 kts 312°
2026-05-04 19:49 51.84351 -0.17338 24053 ft 430 kts 312°
2026-05-04 19:49 51.86442 -0.20804 24057 ft 430 kts 312°
2026-05-04 19:49 51.88520 -0.24255 24057 ft 430 kts 312°
2026-05-04 19:49 51.90593 -0.27703 24057 ft 430 kts 312°
2026-05-04 19:50 51.92613 -0.31070 24056 ft 430 kts 312°
2026-05-04 19:50 51.94694 -0.34544 24057 ft 429 kts 312°
2026-05-04 19:50 51.96774 -0.38017 24057 ft 429 kts 312°
2026-05-04 19:50 51.98856 -0.41496 24056 ft 429 kts 311°
2026-05-04 19:51 52.00233 -0.43806 24058 ft 429 kts 311°
2026-05-04 19:51 52.02302 -0.47288 24056 ft 429 kts 311°
2026-05-04 19:51 52.04378 -0.50780 24052 ft 429 kts 311°
2026-05-04 19:51 52.07119 -0.55389 24065 ft 428 kts 311°
2026-05-04 19:52 52.09188 -0.58870 24067 ft 427 kts 311°
2026-05-04 19:52 52.11255 -0.62355 24069 ft 427 kts 311°
2026-05-04 19:52 52.13313 -0.65831 24069 ft 426 kts 311°
2026-05-04 19:52 52.14700 -0.68175 24068 ft 426 kts 311°
2026-05-04 19:53 52.16752 -0.71649 24067 ft 426 kts 311°
2026-05-04 19:53 52.18776 -0.75082 24065 ft 425 kts 311°
2026-05-04 19:53 52.20820 -0.78562 24064 ft 425 kts 311°
2026-05-04 19:53 52.22868 -0.82050 24063 ft 425 kts 311°
2026-05-04 19:54 52.25054 -0.85324 24062 ft 428 kts 319°
2026-05-04 19:54 52.27535 -0.88029 24062 ft 430 kts 326°
2026-05-04 19:54 52.30100 -0.90562 24069 ft 430 kts 325°
2026-05-04 19:54 52.32658 -0.93093 24074 ft 429 kts 325°
2026-05-04 19:55 52.35201 -0.95621 24078 ft 428 kts 325°
2026-05-04 19:55 52.37744 -0.98163 24077 ft 427 kts 325°
2026-05-04 19:55 52.40275 -1.00701 24077 ft 427 kts 325°
2026-05-04 19:55 52.42810 -1.03241 24061 ft 427 kts 325°
2026-05-04 19:56 52.45349 -1.05784 24049 ft 427 kts 325°
2026-05-04 19:56 52.47887 -1.08331 24043 ft 427 kts 325°
2026-05-04 19:56 52.50388 -1.10848 24040 ft 427 kts 325°
2026-05-04 19:56 52.52918 -1.13399 24038 ft 427 kts 324°
2026-05-04 19:57 52.55432 -1.15932 24034 ft 421 kts 324°
2026-05-04 19:57 52.57918 -1.18434 23308 ft 421 kts 324°
2026-05-04 19:57 52.60443 -1.20984 22166 ft 429 kts 325°
2026-05-04 19:57 52.62989 -1.23558 21483 ft 425 kts 325°
2026-05-04 19:58 52.65351 -1.25946 20990 ft 418 kts 325°
2026-05-04 19:58 52.67761 -1.28385 20489 ft 412 kts 326°
2026-05-04 19:58 52.70181 -1.30840 20102 ft 404 kts 326°
2026-05-04 19:58 52.72531 -1.33229 20005 ft 397 kts 326°
2026-05-04 19:59 52.74815 -1.35557 19936 ft 398 kts 326°
2026-05-04 19:59 52.77191 -1.37983 18986 ft 406 kts 326°
2026-05-04 19:59 52.79604 -1.40453 18253 ft 408 kts 327°
2026-05-04 19:59 52.81946 -1.42847 17560 ft 402 kts 327°
2026-05-04 20:00 52.84301 -1.45252 16481 ft 395 kts 327°
2026-05-04 20:00 52.86593 -1.47589 15936 ft 379 kts 327°
2026-05-04 20:00 52.88804 -1.49851 15400 ft 371 kts 327°
2026-05-04 20:00 52.90998 -1.52105 14860 ft 371 kts 327°
2026-05-04 20:01 52.93167 -1.54343 14323 ft 369 kts 327°
2026-05-04 20:01 52.95344 -1.56594 13787 ft 368 kts 327°
2026-05-04 20:01 52.97506 -1.58832 13220 ft 365 kts 327°
2026-05-04 20:01 52.99652 -1.61054 12697 ft 361 kts 327°
2026-05-04 20:02 53.01774 -1.63251 12195 ft 357 kts 327°
2026-05-04 20:02 53.03840 -1.65388 12052 ft 343 kts 327°
2026-05-04 20:02 53.05676 -1.67693 11920 ft 328 kts 315°
2026-05-04 20:02 53.07180 -1.70439 11793 ft 315 kts 309°
2026-05-04 20:03 53.08580 -1.73152 11666 ft 304 kts 310°
2026-05-04 20:03 53.09925 -1.75754 11480 ft 295 kts 310°
2026-05-04 20:03 53.11208 -1.78240 11238 ft 291 kts 310°
2026-05-04 20:03 53.12498 -1.80745 10930 ft 289 kts 310°
2026-05-04 20:04 53.13808 -1.83288 10521 ft 289 kts 310°
2026-05-04 20:04 53.15117 -1.85832 10126 ft 289 kts 310°
2026-05-04 20:04 53.16417 -1.88367 9724 ft 288 kts 310°
2026-05-04 20:04 53.17714 -1.90892 9388 ft 284 kts 310°
2026-05-04 20:05 53.19006 -1.93408 8952 ft 284 kts 310°
2026-05-04 20:05 53.20280 -1.95896 8497 ft 284 kts 310°
2026-05-04 20:05 53.21542 -1.98367 8327 ft 273 kts 310°
2026-05-04 20:05 53.22747 -2.00729 8199 ft 262 kts 310°
2026-05-04 20:06 53.23908 -2.03004 8094 ft 254 kts 310°
2026-05-04 20:06 53.25071 -2.05300 8078 ft 267 kts 309°
2026-05-04 20:06 53.26286 -2.07703 8080 ft 271 kts 309°
2026-05-04 20:06 53.27505 -2.10113 8081 ft 272 kts 309°
2026-05-04 20:07 53.28728 -2.12525 8080 ft 271 kts 309°
2026-05-04 20:07 53.29918 -2.14868 8082 ft 271 kts 309°
2026-05-04 20:07 53.31136 -2.17274 8084 ft 272 kts 309°
2026-05-04 20:07 53.32506 -2.19373 7618 ft 269 kts 328°
2026-05-04 20:08 53.34295 -2.20383 7008 ft 278 kts 354°
2026-05-04 20:08 53.36182 -2.20032 6557 ft 281 kts 18°
2026-05-04 20:08 53.37841 -2.18356 6101 ft 283 kts 43°
2026-05-04 20:08 53.39219 -2.16036 5667 ft 282 kts 45°
2026-05-04 20:09 53.40575 -2.13714 5231 ft 280 kts 45°
2026-05-04 20:09 53.41911 -2.11420 4749 ft 274 kts 44°
2026-05-04 20:09 53.43216 -2.09175 4520 ft 252 kts 44°
2026-05-04 20:09 53.44380 -2.07172 4455 ft 231 kts 44°
2026-05-04 20:10 53.45492 -2.05266 4378 ft 226 kts 44°
2026-05-04 20:10 53.46587 -2.03395 4293 ft 224 kts 44°
2026-05-04 20:10 53.47682 -2.01525 4206 ft 225 kts 44°
2026-05-04 20:10 53.48776 -1.99655 4114 ft 224 kts 44°
2026-05-04 20:11 53.49852 -1.97816 4062 ft 223 kts 44°
2026-05-04 20:11 53.50942 -1.95957 4010 ft 223 kts 44°
2026-05-04 20:11 53.52041 -1.94080 3954 ft 222 kts 44°
2026-05-04 20:11 53.53114 -1.92248 3908 ft 222 kts 43°
2026-05-04 20:12 53.54378 -1.90848 3860 ft 218 kts 12°
2026-05-04 20:12 53.55783 -1.90881 3816 ft 210 kts 339°
2026-05-04 20:12 53.56917 -1.92218 3758 ft 198 kts 306°
2026-05-04 20:12 53.57425 -1.94310 3711 ft 194 kts 275°
2026-05-04 20:13 53.57198 -1.96531 3627 ft 195 kts 244°
2026-05-04 20:13 53.56308 -1.98192 3540 ft 198 kts 211°
2026-05-04 20:13 53.55052 -1.98974 3545 ft 185 kts 198°
2026-05-04 20:13 53.53882 -1.99573 3511 ft 171 kts 199°
2026-05-04 20:14 53.52789 -2.00142 3504 ft 161 kts 199°
2026-05-04 20:14 53.51739 -2.00694 3500 ft 157 kts 199°
2026-05-04 20:14 53.50700 -2.01239 3499 ft 155 kts 199°
2026-05-04 20:14 53.49669 -2.01784 3510 ft 155 kts 199°
2026-05-04 20:15 53.48640 -2.02327 3514 ft 155 kts 199°
2026-05-04 20:15 53.47610 -2.02882 3512 ft 155 kts 204°
2026-05-04 20:15 53.46733 -2.03871 3512 ft 152 kts 230°
2026-05-04 20:15 53.46090 -2.05236 3496 ft 153 kts 233°
2026-05-04 20:16 53.45415 -2.06627 3245 ft 153 kts 232°
2026-05-04 20:16 53.44752 -2.08001 3024 ft 150 kts 233°
2026-05-04 20:16 53.44107 -2.09340 2818 ft 150 kts 234°
2026-05-04 20:16 53.43461 -2.10686 2636 ft 150 kts 234°
2026-05-04 20:17 53.42803 -2.12058 2431 ft 150 kts 234°
2026-05-04 20:17 53.42152 -2.13413 2223 ft 149 kts 234°
2026-05-04 20:17 53.41499 -2.14773 2019 ft 149 kts 234°
2026-05-04 20:17 53.40848 -2.16129 1813 ft 149 kts 235°
2026-05-04 20:18 53.40205 -2.17465 1610 ft 149 kts 235°
2026-05-04 20:18 53.39557 -2.18813 1407 ft 149 kts 234°
2026-05-04 20:18 53.38907 -2.20160 1229 ft 149 kts 235°
2026-05-04 20:18 53.38251 -2.21499 979 ft 147 kts 234°
2026-05-04 20:19 53.37627 -2.22840 687 ft 146 kts 236°
2026-05-04 20:19 53.36997 -2.24152 518 ft 146 kts 233°
2026-05-04 20:19 53.36357 -2.25457 318 ft 144 kts 234°
2026-05-04 20:19 53.35754 -2.26713 238 ft 128 kts 228°
2026-05-04 20:20 53.35386 -2.27474 248 ft 45 kts 231°
2026-05-04 20:20 53.35278 -2.27770 251 ft 15 kts 249°
2026-05-04 20:20 53.35260 -2.27871 252 ft 0 kts 253°
2026-05-04 20:21 53.35256 -2.27906 252 ft 14 kts 259°
2026-05-04 20:21 53.35242 -2.28040 252 ft 4 kts 259°
2026-05-04 20:21 53.35234 -2.28116 253 ft 5 kts 261°
2026-05-04 20:22 53.35232 -2.28144 253 ft 0 kts 263°
2026-05-04 20:22 53.35232 -2.28176 254 ft 9 kts 275°
2026-05-04 20:23 53.35300 -2.28211 254 ft 15 kts 20°
2026-05-04 20:23 53.35402 -2.28164 254 ft 13 kts
2026-05-04 20:23 53.35491 -2.28127 253 ft 10 kts 21°
2026-05-04 20:23 53.35554 -2.28058 253 ft 12 kts 53°
2026-05-04 20:24 53.35583 -2.27987 252 ft 5 kts 52°
2026-05-04 20:24 53.35613 -2.27925 251 ft 8 kts 50°
2026-05-04 20:24 53.35668 -2.27881 251 ft 10 kts
2026-05-04 20:24 53.35753 -2.27872 250 ft 14 kts
2026-05-04 20:25 53.35780 -2.27868 250 ft 4 kts
2026-05-04 20:25 53.35816 -2.27863 250 ft 7 kts
2026-05-04 20:25 53.35873 -2.27853 250 ft 10 kts
2026-05-04 20:25 53.35955 -2.27839 249 ft 13 kts
2026-05-04 20:26 53.36046 -2.27837 249 ft 14 kts 344°
2026-05-04 20:26 53.36117 -2.27933 250 ft 12 kts 315°
2026-05-04 20:26 53.36181 -2.28042 250 ft 14 kts 315°
2026-05-04 20:26 53.36254 -2.28164 251 ft 16 kts 314°
2026-05-04 20:27 53.36320 -2.28276 252 ft 14 kts 314°
2026-05-04 20:27 53.36392 -2.28398 252 ft 12 kts 315°
2026-05-04 20:27 53.36456 -2.28506 253 ft 14 kts 315°
2026-05-04 20:27 53.36530 -2.28629 253 ft 14 kts 315°
2026-05-04 20:28 53.36586 -2.28758 254 ft 13 kts 315°
2026-05-04 20:28 53.36668 -2.28713 253 ft 13 kts 45°
2026-05-04 20:28 53.36720 -2.28626 252 ft 7 kts 45°
2026-05-04 20:28 53.36542 -2.27955 247 ft 0 kts 46°
2026-05-04 20:29 53.36544 -2.27951 247 ft 0 kts 46°